Sadsburyville, PA

12:14 AM EDT on September 01, 2016 (GMT -0400)
Chester County Carlson

Weather History for KMQS - November, 2012

Change the Weather History Date:

Sunday, November 25, 2012

  Actual Average (KLNS) Record (KLNS)
Temperature  
Mean Temperature 34 °F -  
Max Temperature 37 °F 50 °F 70 °F (1979)
Min Temperature 32 °F 32 °F 17 °F (2013)
Degree Days  
Heating Degree Days 30    
Moisture  
Dew Point 22 °F    
Average Humidity 61    
Maximum Humidity 65    
Minimum Humidity 52    
Precipitation  
Precipitation 0.03 in - - ()
Sea Level Pressure  
Sea Level Pressure 29.97 in    
Wind  
Wind Speed 10 mph (West)    
Max Wind Speed 20 mph    
Max Gust Speed 24 mph    
Visibility 10 miles    
Events Snow    
Averages and records for this station are not official NWS values.
T = Trace of Precipitation, MM = Missing Value Source: NWS Daily Summary

Daily Weather History Graph

Daily Weather History Graph

Search for Another Location

Airport or City:

Trip Planner

Search our weather history database for the weather conditions in past years. The results will help you decide how hot, cold, wet, or windy it might be!

Date:

Astronomy

Nov. 25, 2012 Rise Set
Actual Time 7:00 AM EST 4:40 PM EST
Civil Twilight 6:30 AM EST 5:10 PM EST
Nautical Twilight 5:57 AM EST 5:43 PM EST
Astronomical Twilight 5:24 AM EST 6:16 PM EST
Moon 2:56 PM EST (11/25) 4:12 AM EST (11/25)
Length of Visible Light 10h 39m
Length of Day
9h 40m
Waxing Gibbous, 93% of the Moon is Illuminated
Nov 25
Waxing Gibbous
Nov 28
Full
Dec 6
Last Quarter
Dec 13
New
Dec 20
First Quarter

Hourly Weather History & Observations

Time (EST) Temp. Windchill Dew Point Humidity Pressure Visibility Wind Dir Wind Speed Gust Speed Precip Events Conditions
12:15 AM 32.0 °F 25.6 °F 21.2 °F 64% 29.96 in 10.0 mi West 6.9 mph - N/A   Clear
12:35 AM 32.0 °F 26.4 °F 21.2 °F 64% 29.95 in 10.0 mi West 5.8 mph - N/A   Clear
1:15 AM 32.0 °F 23.0 °F 21.2 °F 64% 29.95 in 10.0 mi WNW 11.5 mph - N/A   Scattered Clouds
1:35 AM 33.8 °F 27.7 °F 21.2 °F 60% 29.95 in 10.0 mi West 6.9 mph - N/A   Overcast
1:55 AM 33.8 °F 23.9 °F 21.2 °F 60% 29.95 in 10.0 mi WNW 15.0 mph 20.7 mph N/A   Overcast
2:15 AM 33.8 °F 23.9 °F 21.2 °F 60% 29.96 in 10.0 mi WNW 15.0 mph - N/A   Overcast
2:55 AM 33.8 °F 23.2 °F 21.2 °F 60% 29.97 in 10.0 mi WNW 17.3 mph 20.7 mph N/A   Overcast
3:15 AM 33.8 °F 24.8 °F 21.2 °F 60% 29.97 in 10.0 mi WNW 12.7 mph - N/A   Overcast
3:35 AM 33.8 °F 23.9 °F 21.2 °F 60% 29.97 in 10.0 mi WNW 15.0 mph 23.0 mph N/A   Mostly Cloudy
4:15 AM 33.8 °F 23.2 °F 21.2 °F 60% 29.95 in 10.0 mi WNW 17.3 mph - N/A   Scattered Clouds
4:35 AM 33.8 °F 23.9 °F 21.2 °F 60% 29.97 in 10.0 mi WNW 15.0 mph - N/A   Mostly Cloudy
4:55 AM 33.8 °F 24.3 °F 23.0 °F 65% 29.97 in 10.0 mi WNW 13.8 mph 18.4 mph N/A   Mostly Cloudy
5:15 AM 33.8 °F 25.3 °F 23.0 °F 65% 29.97 in 10.0 mi WNW 11.5 mph 17.3 mph N/A   Mostly Cloudy
5:35 AM 33.8 °F 22.5 °F 23.0 °F 65% 29.96 in 10.0 mi WNW 19.6 mph 24.2 mph N/A   Scattered Clouds
5:55 AM 33.8 °F 25.8 °F 21.2 °F 60% 29.97 in 10.0 mi West 10.4 mph - N/A   Clear
6:15 AM 33.8 °F 24.8 °F 21.2 °F 60% 29.97 in 10.0 mi West 12.7 mph 18.4 mph N/A   Scattered Clouds
6:35 AM 33.8 °F 23.9 °F 21.2 °F 60% 29.97 in 10.0 mi WNW 15.0 mph 19.6 mph N/A   Scattered Clouds
6:55 AM 33.8 °F 24.3 °F 23.0 °F 65% 29.97 in 10.0 mi WNW 13.8 mph - N/A   Clear
7:15 AM 33.8 °F 24.8 °F 21.2 °F 60% 29.98 in 10.0 mi WNW 12.7 mph 19.6 mph N/A   Clear
7:35 AM 33.8 °F 24.3 °F 23.0 °F 65% 29.98 in 10.0 mi WNW 13.8 mph - N/A   Clear
7:55 AM 33.8 °F 25.3 °F 23.0 °F 65% 29.98 in 10.0 mi WNW 11.5 mph 18.4 mph N/A   Clear
8:15 AM 35.6 °F 26.6 °F 23.0 °F 60% 29.99 in 10.0 mi WNW 13.8 mph 19.6 mph N/A   Partly Cloudy
8:35 AM 35.6 °F 26.2 °F 23.0 °F 60% 29.99 in 10.0 mi WNW 15.0 mph 19.6 mph N/A   Scattered Clouds
8:55 AM 35.6 °F 27.1 °F 23.0 °F 60% 30.00 in 10.0 mi WNW 12.7 mph - N/A   Partly Cloudy
9:15 AM 35.6 °F 25.9 °F 23.0 °F 60% 29.99 in 10.0 mi WNW 16.1 mph 20.7 mph N/A   Clear
9:35 AM 35.6 °F 26.6 °F 21.2 °F 56% 29.99 in 10.0 mi West 13.8 mph - N/A   Clear
9:55 AM 35.6 °F 25.9 °F 21.2 °F 56% 30.01 in 10.0 mi WNW 16.1 mph 20.7 mph N/A   Clear
10:15 AM 35.6 °F 25.5 °F 21.2 °F 56% 30.01 in 10.0 mi WNW 17.3 mph 21.9 mph N/A   Clear
10:35 AM 35.6 °F 25.2 °F 21.2 °F 56% 30.01 in 10.0 mi WNW 18.4 mph 24.2 mph N/A   Clear
10:55 AM 35.6 °F 25.9 °F 21.2 °F 56% 30.01 in 10.0 mi WNW 16.1 mph - N/A   Clear
11:15 AM 35.6 °F 26.2 °F 21.2 °F 56% 30.00 in 10.0 mi WNW 15.0 mph 18.4 mph N/A   Clear
11:35 AM 35.6 °F 28.0 °F 21.2 °F 56% 29.99 in 10.0 mi West 10.4 mph - N/A   Clear
11:55 AM 35.6 °F 27.1 °F 21.2 °F 56% 29.99 in 10.0 mi West 12.7 mph 19.6 mph N/A   Clear
12:15 PM 35.6 °F 26.2 °F 21.2 °F 56% 29.98 in 10.0 mi WNW 15.0 mph - N/A   Clear
12:55 PM 33.8 °F 27.0 °F 23.0 °F 65% 29.96 in 4.0 mi West 8.1 mph - 0.03 in Snow Light Snow
1:15 PM 33.8 °F 29.6 °F 23.0 °F 65% 29.95 in 10.0 mi WSW 4.6 mph - N/A Snow Light Snow
1:35 PM 33.8 °F 27.0 °F 23.0 °F 65% 29.94 in 10.0 mi West 8.1 mph - N/A   Clear
1:55 PM 33.8 °F 27.7 °F 23.0 °F 65% 29.93 in 10.0 mi West 6.9 mph - N/A   Scattered Clouds
2:15 PM 35.6 °F 29.2 °F 23.0 °F 60% 29.93 in 10.0 mi West 8.1 mph - N/A   Mostly Cloudy
2:35 PM 35.6 °F 30.7 °F 21.2 °F 56% 29.93 in 10.0 mi SW 5.8 mph - N/A   Mostly Cloudy
2:55 PM 37.4 °F 30.3 °F 21.2 °F 52% 29.93 in 10.0 mi West 10.4 mph - N/A   Mostly Cloudy
3:15 PM 35.6 °F 32.8 °F 21.2 °F 56% 29.94 in 10.0 mi WSW 3.5 mph - N/A   Partly Cloudy
3:35 PM 35.6 °F - 21.2 °F 56% 29.93 in 10.0 mi Calm Calm - N/A   Clear
3:55 PM 35.6 °F - 21.2 °F 56% 29.93 in 10.0 mi Calm Calm - N/A   Partly Cloudy
4:15 PM 35.6 °F 31.7 °F 21.2 °F 56% 29.93 in 10.0 mi SW 4.6 mph - N/A   Scattered Clouds
4:35 PM 35.6 °F 31.7 °F 21.2 °F 56% 29.93 in 10.0 mi SW 4.6 mph - N/A   Clear
4:55 PM 33.8 °F 29.6 °F 21.2 °F 60% 29.93 in 10.0 mi SW 4.6 mph - N/A   Clear
5:15 PM 33.8 °F 29.6 °F 21.2 °F 60% 29.93 in 10.0 mi SW 4.6 mph - N/A   Clear
5:35 PM 33.8 °F - 21.2 °F 60% 29.94 in 10.0 mi Calm Calm - N/A   Clear
5:55 PM 32.0 °F - 21.2 °F 64% 29.94 in 10.0 mi Calm Calm - N/A   Clear
6:15 PM 32.0 °F 28.7 °F 21.2 °F 64% 29.95 in 10.0 mi SW 3.5 mph - N/A   Clear
6:35 PM 32.0 °F 28.7 °F 21.2 °F 64% 29.95 in 10.0 mi SW 3.5 mph - N/A   Clear
6:55 PM 32.0 °F - 21.2 °F 64% 29.95 in 10.0 mi Calm Calm - N/A   Clear
7:15 PM 32.0 °F - 21.2 °F 64% 29.96 in 10.0 mi Calm Calm - N/A   Clear
7:35 PM 32.0 °F - 21.2 °F 64% 29.96 in 10.0 mi Calm Calm - N/A   Clear
7:55 PM 32.0 °F - 21.2 °F 64% 29.96 in 10.0 mi Calm Calm - N/A   Clear
8:15 PM 32.0 °F - 21.2 °F 64% 29.97 in 10.0 mi Calm Calm - N/A   Clear
8:35 PM 32.0 °F 28.7 °F 21.2 °F 64% 29.97 in 10.0 mi SW 3.5 mph - N/A   Clear
9:15 PM 32.0 °F - 21.2 °F 64% 29.97 in 10.0 mi Calm Calm - N/A   Clear
9:35 PM 32.0 °F 28.7 °F 21.2 °F 64% 29.97 in 10.0 mi WSW 3.5 mph - N/A   Clear
9:55 PM 32.0 °F 28.7 °F 21.2 °F 64% 29.97 in 10.0 mi SW 3.5 mph - N/A   Clear
10:15 PM 32.0 °F - 21.2 °F 64% 29.98 in 10.0 mi Calm Calm - N/A   Clear
10:35 PM 32.0 °F 28.7 °F 21.2 °F 64% 29.98 in 10.0 mi WSW 3.5 mph - N/A   Clear
10:55 PM 32.0 °F 28.7 °F 21.2 °F 64% 29.98 in 10.0 mi West 3.5 mph - N/A   Clear
11:15 PM 32.0 °F - 21.2 °F 64% 29.99 in 10.0 mi Calm Calm - N/A   Clear
11:35 PM 32.0 °F 28.7 °F 21.2 °F 64% 29.99 in 10.0 mi West 3.5 mph - N/A   Clear
11:55 PM 32.0 °F 27.5 °F 21.2 °F 64% 30.00 in 10.0 mi West 4.6 mph - N/A   Clear